LHX4PW EDDH-EDDM

Flight info

Callsign LHX4PW
Flight time N/A
Altitude 35000
Route AMLUH3B/23 AMLUH M852 DENIX DCT ZUCKA DCT SODRO T703 LULAR T105 LANDU LANDU2A
Aircraft A319/M-SDE3FGHIRWY/LB1

Departure

Time 2026-05-01 15:11
Airport Hamburg Helmut Schmidt Airport (EDDH)

Arrival

Time N/A
Airport Munich Airport (EDDM)
Time Latitude Longitude Altitude Speed Heading
2026-05-01 14:26 53.63245 10.00361 49 ft 0 kts 86°
2026-05-01 15:05 53.63245 10.00360 48 ft 0 kts 86°
2026-05-01 15:05 53.63244 10.00338 48 ft 3 kts 86°
2026-05-01 15:05 53.63243 10.00304 48 ft 3 kts 86°
2026-05-01 15:05 53.63242 10.00270 48 ft 3 kts 86°
2026-05-01 15:06 53.63240 10.00237 43 ft 3 kts 81°
2026-05-01 15:06 53.63235 10.00205 47 ft 3 kts 56°
2026-05-01 15:06 53.63222 10.00182 44 ft 3 kts 13°
2026-05-01 15:06 53.63214 10.00180 46 ft 0 kts 355°
2026-05-01 15:09 53.63215 10.00179 48 ft 1 kts 355°
2026-05-01 15:09 53.63262 10.00173 48 ft 12 kts 355°
2026-05-01 15:09 53.63346 10.00163 48 ft 12 kts 355°
2026-05-01 15:09 53.63433 10.00152 48 ft 13 kts 355°
2026-05-01 15:10 53.63522 10.00131 47 ft 13 kts 337°
2026-05-01 15:10 53.63597 9.99959 50 ft 9 kts 233°
2026-05-01 15:10 53.63585 9.99934 52 ft 3 kts 230°
2026-05-01 15:11 53.63433 9.99628 48 ft 73 kts 230°
2026-05-01 15:11 53.62267 9.97246 318 ft 163 kts 227°
2026-05-01 15:11 53.61553 9.95752 1068 ft 163 kts 226°
2026-05-01 15:12 53.60832 9.94281 1843 ft 164 kts 226°
2026-05-01 15:12 53.59201 9.90974 2731 ft 207 kts 228°
2026-05-01 15:12 53.58251 9.89041 3325 ft 218 kts 228°
2026-05-01 15:13 53.54464 9.86622 5968 ft 217 kts 150°
2026-05-01 15:14 53.52200 9.90126 7654 ft 226 kts 128°
2026-05-01 15:14 53.51534 9.92540 8380 ft 239 kts 107°
2026-05-01 15:14 53.51375 9.98711 9243 ft 284 kts 93°
2026-05-01 15:15 53.50989 10.05261 9350 ft 281 kts 111°
2026-05-01 15:15 53.49328 10.11125 9351 ft 278 kts 120°
2026-05-01 15:16 53.47860 10.15941 9345 ft 278 kts 120°
2026-05-01 15:16 53.45810 10.22661 9362 ft 279 kts 120°
2026-05-01 15:17 53.43851 10.28369 10721 ft 296 kts 130°
2026-05-01 15:18 53.39080 10.33910 12212 ft 326 kts 161°
2026-05-01 15:18 53.36908 10.34936 12992 ft 330 kts 165°
2026-05-01 15:19 53.30129 10.37995 15169 ft 343 kts 165°
2026-05-01 15:19 53.25452 10.40090 16338 ft 356 kts 165°
2026-05-01 15:19 53.23032 10.41170 16924 ft 362 kts 165°
2026-05-01 15:20 53.18116 10.43359 18197 ft 371 kts 164°
2026-05-01 15:20 53.15604 10.44478 18795 ft 376 kts 164°
2026-05-01 15:20 53.13054 10.45610 19365 ft 379 kts 165°
2026-05-01 15:21 53.10461 10.46619 19961 ft 383 kts 167°
2026-05-01 15:21 53.07857 10.47473 20555 ft 386 kts 168°
2026-05-01 15:21 53.05195 10.48261 21139 ft 389 kts 169°
2026-05-01 15:21 53.02539 10.49016 21733 ft 392 kts 169°
2026-05-01 15:22 52.97100 10.50600 22885 ft 398 kts 169°
2026-05-01 15:22 52.94395 10.51420 23416 ft 401 kts 168°
2026-05-01 15:22 52.91632 10.52273 23952 ft 404 kts 168°
2026-05-01 15:23 52.88846 10.53139 24389 ft 407 kts 168°
2026-05-01 15:23 52.86085 10.53999 24823 ft 410 kts 168°
2026-05-01 15:23 52.83267 10.54876 25250 ft 412 kts 168°
2026-05-01 15:23 52.80427 10.55757 25670 ft 415 kts 168°
2026-05-01 15:24 52.77575 10.56640 26090 ft 418 kts 168°
2026-05-01 15:24 52.74697 10.57526 26503 ft 421 kts 168°
2026-05-01 15:24 52.71842 10.58402 26919 ft 423 kts 168°
2026-05-01 15:24 52.68919 10.59296 27319 ft 426 kts 168°
2026-05-01 15:25 52.66015 10.60183 27725 ft 429 kts 168°
2026-05-01 15:25 52.63057 10.61089 28105 ft 432 kts 168°
2026-05-01 15:25 52.60093 10.61995 28505 ft 435 kts 168°
2026-05-01 15:25 52.57107 10.62905 28887 ft 437 kts 168°
2026-05-01 15:26 52.54133 10.63811 29257 ft 440 kts 168°
2026-05-01 15:26 52.51099 10.64732 29620 ft 443 kts 168°
2026-05-01 15:26 52.48050 10.65655 29976 ft 445 kts 168°
2026-05-01 15:26 52.45023 10.66569 30317 ft 448 kts 168°
2026-05-01 15:27 52.41942 10.67499 30617 ft 450 kts 168°
2026-05-01 15:27 52.38872 10.68423 30907 ft 453 kts 168°
2026-05-01 15:27 52.35750 10.69364 31195 ft 455 kts 168°
2026-05-01 15:28 52.29535 10.71235 31989 ft 453 kts 168°
2026-05-01 15:28 52.26422 10.72175 32403 ft 452 kts 168°
2026-05-01 15:28 52.23356 10.73098 32803 ft 452 kts 169°
2026-05-01 15:29 52.17183 10.74952 33603 ft 451 kts 169°
2026-05-01 15:29 52.14082 10.75876 34001 ft 450 kts 169°
2026-05-01 15:29 52.07940 10.77700 34656 ft 450 kts 169°
2026-05-01 15:30 52.01762 10.79535 35142 ft 450 kts 169°
2026-05-01 15:31 51.89468 10.83177 35355 ft 448 kts 169°
2026-05-01 15:31 51.83365 10.84983 35357 ft 448 kts 169°
2026-05-01 15:32 51.71078 10.88583 35357 ft 448 kts 169°
2026-05-01 15:33 51.62358 10.93630 35353 ft 448 kts 153°
2026-05-01 15:34 51.53962 11.00262 35353 ft 449 kts 153°